Location: Bazinghen
(50.8246°N, 1.6616°E)
Time: 22:48:15
(UTC+00:00)

Cosmos 1328 - Pass Details

Date: 09 April 2020
Orbit: 539 x 544 km, 82.5° (Epoch: 03 June)

Event Time Altitude Azimuth Distance (km) Brightness Sun altitude
Rises 19:03:32 0° 351° (N) 2,724 7.8 -4.4°
Reaches altitude 10° 19:05:43 10° 355° (N) 1,826 6.8 -4.8°
Maximum altitude 19:09:42 65° 77° (ENE) 606 3.8 -5.4°
Drops below altitude 10° 19:13:40 10° 160° (SSE) 1,812 6.1 -6.0°
Sets 19:15:50 0° 164° (SSE) 2,700 7.0 -6.3°
